GW5484 Weather Reports


Display with metric or nautical units.
time (UTC)temp
F
wind
direction
speed
MPH
gust
MPH
rain 1hr
in
rain 24hr
in
rain mn
in
humidity
%
barometer
mb
20260502152018 74 182 4.0 7.0 0.00 0.00 0.00 11 1017.3
20260502151018 73 178 2.0 6.0 0.00 0.00 0.00 11 1017.3
20260502123027 64 315 2.0 4.0 0.00 0.00 0.00 14 1016.2
20260502122027 64 317 2.0 3.0 0.00 0.00 0.00 14 1016.2
20260502121027 64 300 2.0 3.0 0.00 0.00 0.00 13 1016.2
20260502115028 64 306 2.0 4.0 0.00 0.00 0.00 13 1016.1
20260502114028 64 292 2.0 3.0 0.00 0.00 0.00 13 1016.1
20260502113030 65 301 1.0 4.0 0.00 0.00 0.00 12 1016.1
20260502112028 65 297 2.0 3.0 0.00 0.00 0.00 12 1016.1
20260502111029 65 306 1.0 3.0 0.00 0.00 0.00 12 1016.1
20260502110029 65 301 2.0 4.0 0.00 0.00 0.00 12 1016.1
20260502105029 65 303 1.0 3.0 0.00 0.00 0.00 12 1016.1
20260502104049 65 310 2.0 4.0 0.00 0.00 0.00 12 1016.0
20260502103030 65 302 2.0 4.0 0.00 0.00 0.00 11 1016.0
20260502102052 66 307 2.0 4.0 0.00 0.00 0.00 11 1016.1
20260502101029 65 298 2.0 4.0 0.00 0.00 0.00 11 1016.2
20260502091031 66 295 2.0 4.0 0.00 0.00 0.00 11 1016.3
20260502071016 67 304 2.0 4.0 0.00 0.00 0.00 11 1016.3
20260502070018 67 288 2.0 3.0 0.00 0.00 0.00 10 1016.2
20260502065019 68 261 1.0 2.0 0.00 0.00 0.00 10 1016.2
20260502064018 69 218 2.0 4.0 0.00 0.00 0.00 9 1016.1
20260502063019 69 242 3.0 4.0 0.00 0.00 0.00 9 1016.1
20260502062039 69 218 2.0 3.0 0.00 0.00 0.00 9 1016.1
20260502061017 70 218 3.0 4.0 0.00 0.00 0.00 10 1016.0
20260502060018 70 202 4.0 5.0 0.00 0.00 0.00 9 1015.9
20260502055018 71 243 3.0 5.0 0.00 0.00 0.00 9 1015.8
20260502054017 71 203 3.0 5.0 0.00 0.00 0.00 9 1015.7
20260502053018 71 203 2.0 4.0 0.00 0.00 0.00 10 1015.7
20260502052019 70 312 3.0 6.0 0.00 0.00 0.00 10 1015.5
20260502051018 71 303 3.0 6.0 0.00 0.00 0.00 10 1015.4
20260502050019 71 322 4.0 9.0 0.00 0.00 0.00 10 1015.3
20260502045020 71 309 3.0 7.0 0.00 0.00 0.00 10 1015.2
20260502044018 71 312 4.0 8.0 0.00 0.00 0.00 10 1015.1
20260502043100 71 306 4.0 9.0 0.00 0.00 0.00 10 1015.0
20260502042017 72 302 4.0 13.0 0.00 0.00 0.00 9 1014.8
20260502041039 72 301 3.0 9.0 0.00 0.00 0.00 9 1014.7
20260502040019 72 298 2.0 6.0 0.00 0.00 0.00 9 1014.6
20260502035020 72 301 2.0 6.0 0.00 0.00 0.00 9 1014.3
20260502034021 72 313 6.0 9.0 0.00 0.00 0.00 9 1014.3
20260502033020 73 315 5.0 10.0 0.00 0.00 0.00 9 1014.1
20260502032020 73 312 5.0 12.0 0.00 0.00 0.00 9 1013.9
20260502031016 73 312 4.0 9.0 0.00 0.00 0.00 10 1013.7
20260502030021 73 310 4.0 11.0 0.00 0.00 0.00 10 1013.6
20260502025021 75 315 4.0 9.0 0.00 0.00 0.00 9 1013.4
20260502024021 75 321 4.0 8.0 0.00 0.00 0.00 9 1013.3
20260502023058 76 330 7.0 10.0 0.00 0.00 0.00 8 1013.2
20260502022017 76 335 7.0 11.0 0.00 0.00 0.00 8 1013.1
20260502021041 77 310 4.0 7.0 0.00 0.00 0.00 8 1013.0
20260502020022 77 335 9.0 14.0 0.00 0.00 0.00 8 1013.0
20260502015017 78 320 9.0 15.0 0.00 0.00 0.00 8 1012.9
20260502014018 78 317 6.0 11.0 0.00 0.00 0.00 8 1012.7
20260502013018 78 326 7.0 13.0 0.00 0.00 0.00 8 1012.7
20260502012018 79 330 9.0 15.0 0.00 0.00 0.00 9 1012.6
20260502011040 79 304 6.0 12.0 0.00 0.00 0.00 9 1012.7
20260502010018 79 330 7.0 16.0 0.00 0.00 0.00 9 1012.6
20260502005019 79 319 6.0 14.0 0.00 0.00 0.00 9 1012.6
20260502004020 79 343 10.0 18.0 0.00 0.00 0.00 9 1012.6
20260502003040 79 348 7.0 13.0 0.00 0.00 0.00 9 1012.6
20260502002019 79 351 9.0 20.0 0.00 0.00 0.00 9 1012.6
20260502001019 79 334 6.0 10.0 0.00 0.00 0.00 9 1012.7
20260502000021 79 344 8.0 18.0 0.00 0.00 0.00 9 1012.7
20260501235100 79 323 9.0 25.0 0.00 0.00 0.00 10 1012.7
20260501234017 79 347 10.0 23.0 0.00 0.00 0.00 10 1012.7
20260501233016 79 356 11.0 26.0 0.00 0.00 0.00 10 1012.7
20260501232020 79 356 9.0 16.0 0.00 0.00 0.00 10 1012.8
20260501231020 79 333 7.0 17.0 0.00 0.00 0.00 10 1012.8
20260501230017 79 324 7.0 17.0 0.00 0.00 0.00 10 1012.9
20260501225017 79 350 8.0 14.0 0.00 0.00 0.00 9 1013.0
20260501224038 79 7 5.0 12.0 0.00 0.00 0.00 9 1013.1
20260501223018 79 354 8.0 17.0 0.00 0.00 0.00 10 1013.2
20260501222038 79 359 8.0 17.0 0.00 0.00 0.00 9 1013.2
20260501221019 79 12 9.0 25.0 0.00 0.00 0.00 11 1013.4
20260501220020 79 339 7.0 17.0 0.00 0.00 0.00 11 1013.5
20260501215040 78 353 7.0 14.0 0.00 0.00 0.00 11 1013.6
20260501214019 79 337 7.0 22.0 0.00 0.00 0.00 11 1013.8
20260501213016 79 345 8.0 22.0 0.00 0.00 0.00 12 1013.8
20260501212021 78 347 7.0 18.0 0.00 0.00 0.00 12 1014.0
20260501211019 78 345 7.0 14.0 0.00 0.00 0.00 13 1014.2
20260501210021 78 335 5.0 10.0 0.00 0.00 0.00 13 1014.2
20260501205019 77 11 5.0 9.0 0.00 0.00 0.00 13 1014.3
20260501204017 77 322 3.0 8.0 0.00 0.00 0.00 14 1014.3
20260501203017 77 322 7.0 17.0 0.00 0.00 0.00 13 1014.3
20260501202021 77 340 4.0 12.0 0.00 0.00 0.00 14 1014.4
20260501201018 77 319 4.0 11.0 0.00 0.00 0.00 14 1014.5
20260501200017 76 321 4.0 9.0 0.00 0.00 0.00 15 1014.7
20260501195018 74 82 1.0 9.0 0.00 0.00 0.00 15 1014.9
20260501194019 74 358 6.0 12.0 0.00 0.00 0.00 15 1015.0
20260501193018 74 360 2.0 9.0 0.00 0.00 0.00 15 1015.1
20260501192018 75 1 6.0 17.0 0.00 0.00 0.00 15 1015.3
20260501191041 75 32 3.0 10.0 0.00 0.00 0.00 15 1015.4
20260501190018 75 332 6.0 10.0 0.00 0.00 0.00 15 1015.4
20260501185019 76 17 6.0 15.0 0.00 0.00 0.00 15 1015.5
20260501184019 75 12 3.0 12.0 0.00 0.00 0.00 15 1015.6
20260501183038 74 5 7.0 12.0 0.00 0.00 0.00 15 1015.7
20260501182019 75 26 5.0 14.0 0.00 0.00 0.00 15 1015.7
20260501181019 75 6 2.0 8.0 0.00 0.00 0.00 15 1015.8
20260501180019 74 354 5.0 10.0 0.00 0.00 0.00 16 1015.8
20260501175017 76 23 2.0 14.0 0.00 0.00 0.00 15 1015.8
20260501174017 74 118 4.0 9.0 0.00 0.00 0.00 15 1015.9
20260501173017 75 75 4.0 10.0 0.00 0.00 0.00 15 1015.9
20260501172020 73 142 3.0 7.0 0.00 0.00 0.00 15 1015.9
20260501171019 73 8 5.0 13.0 0.00 0.00 0.00 17 1015.9
20260501170018 72 3 5.0 12.0 0.00 0.00 0.00 17 1016.0
20260501165057 72 311 5.0 11.0 0.00 0.00 0.00 17 1016.0
20260501164018 72 337 11.0 17.0 0.00 0.00 0.00 17 1015.9
20260501163100 72 331 10.0 17.0 0.00 0.00 0.00 17 1015.9
20260501162018 71 319 9.0 18.0 0.00 0.00 0.00 18 1015.9
20260501161019 70 326 11.0 18.0 0.00 0.00 0.00 18 1015.8
20260501160019 70 311 10.0 16.0 0.00 0.00 0.00 18 1015.7
20260501155041 69 322 12.0 22.0 0.00 0.00 0.00 19 1015.7